Regional Weather Roundup
Issued by NWS Wakefield, VA

Home | Current Version | Previous Version | Graphics & Text | Print | Product List | Glossary On
Versions: 1 2 3 4 5 6 7 8 9 10 11 12 13 14 15 16 17 18 19 20 21 22 23 24 25 26 27 28 29 30 31 32 33 34 35 36 37 38 39 40 41 42 43 44 45 46 47 48 49 50
000
ASUS41 KAKQ 291114
RWRAKQ

REGIONAL WEATHER ROUNDUP
NATIONAL WEATHER SERVICE WAKEFIELD VA
700 AM EDT SAT AUG 29 2015

Note: "fair" indicates few or no clouds below 12,000 feet with no
significant weather and/or obstructions to visibility. * = Denotes
station may not report precipitation (e.g., rain,snow,etc.),
thunder or fog.

VAZ042-051-052>054-056-291200-
NORTHERN VIRGINIA

CITY           SKY/WX    TMP DP  RH WIND       PRES   REMARKS
WASH NATIONAL  MOCLDY    68  62  81 SW5       30.21R
DULLES         PTCLDY    65  59  81 S6        30.20R
FORT BELVOIR   CLEAR     60  59  96 CALM      30.20S
QUANTICO       PTCLDY    66  59  78 CALM      30.22R
FREDERICKSBRG* PTCLDY    64  63  99 CALM      30.20S
STAFFORD*      PTCLDY    57  56  96 CALM      30.25R FOG
WARRENTON      CLEAR     60  60  99 CALM      30.20R
CULPEPER*      CLEAR     59  59 100 CALM      30.21R FOG
MANASSAS*      CLEAR     63  63 100 CALM      30.20R
LEESBURG*      CLEAR     63  63 100 CALM      30.21S
WINCHESTER     CLEAR     59  59 100 CALM      30.19S
FRONT ROYAL*   FAIR      59  57  94 CALM      30.19R
LURAY*         FAIR      57  57 100 CALM      30.21R FOG
$$

VAZ048-049-060>072-079>083-291200-
CENTRAL AND SOUTH CENTRAL VIRGINIA

CITY           SKY/WX    TMP DP  RH WIND       PRES   REMARKS
RICHMOND       MOCLDY    63  58  83 CALM      30.22R
CHESTERFIELD*  FAIR      59  48  67 CALM      30.23R
PETERSBURG*    MOCLDY    58  58 100 CALM      30.23R
HANOVER        PTCLDY    60  59  96 CALM      30.23R FOG
TAPPAHANNOCK*  PTCLDY    59  56  88 CALM      30.23R
QUINTON*       FAIR      58  58  98 CALM      30.21R
CHARLOTTSVILLE CLEAR     63  60  90 CALM      30.21R
GORDONSVILLE*  FAIR      60  59  97 CALM      30.21R
ORANGE*        CLEAR     61  59  94 CALM      30.23R
LOUISA*        CLEAR     64  59  82 CALM      30.21R
BUMPASS*       FAIR      59  58  97 CALM      30.22R
FARMVILLE*     CLOUDY    61  61 100 CALM      30.21R FOG
CREWE*         CLOUDY   N/A N/A N/A CALM      30.22R
FORT PICKETT*  CLOUDY    60  59  97 CALM      30.22R
CHASE CITY*    FAIR      63  63 100 CALM      30.22R
CLARKSVILLE*   FAIR      59  59 100 CALM      30.22R
SOUTH HILL*    PTCLDY    56  55  97 CALM      30.27R
LAWRENCEVILLE* PTSUNNY   57  57 100 CALM      30.22R
EMPORIA*       PTCLDY    54  54 100 CALM      30.23R
$$

VAZ088>098-291200-
SOUTHEAST VIRGINIA

CITY           SKY/WX    TMP DP  RH WIND       PRES   REMARKS
NORFOLK        CLEAR     68  62  81 CALM      30.20R
VIRGINIA BEACH PTCLDY    62  57  83 CALM      30.20R
NORFOLK NAVAL  PTCLDY    65  60  84 CALM      30.22R
WEST POINT*    PTCLDY    59  57  92 CALM      30.23R
SALUDA*        FAIR      60  59  96 CALM      30.21R
NEWPORT NEWS   PTCLDY    60  59  96 CALM      30.21R
LANGLEY AFB    PTCLDY    63  61  93 CALM      30.20R
FORT EUSTIS    PTCLDY    63  63 100 E1        30.19R
WILLIAMSBURG*  CLEAR     64  63  94 CALM      30.22R
HR EXEC AP*      N/A     54  48  82 CALM      30.23R
FRANKLIN*      CLEAR     56  55  95 CALM      30.22R
WAKEFIELD      CLEAR     57  54  89 CALM      30.21R FOG
$$

VAZ020-022-025-037-045-291200-
WEST CENTRAL AND SOUTHWEST VIRGINIA

CITY           SKY/WX    TMP DP  RH WIND       PRES   REMARKS
STAUNTON*      CLEAR     60  57  90 CALM      30.24R FOG
WAYNESBORO*    FAIR      61  57  88 CALM      30.24R
HOT SPRINGS VA PTCLDY    61  55  79 SW10      30.31R
LYNCHBURG      CLEAR     58  57  97 CALM      30.24R FOG
DANVILLE       CLEAR     59  57  93 CALM      30.23R FOG
SOUTH BOSTON*  FAIR      59  57  94 CALM      30.22R
MARTINSVILLE   CLOUDY    56  56 100 CALM      30.26R FOG
ROANOKE        PTCLDY    61  59  93 CALM      30.25R
BLACKSBURG     CLOUDY    61  61 100 CALM      30.30R FOG
DUBLIN*        CLOUDY    62  62 100 CALM      30.28R FOG
MARION*        PTCLDY    57  55  93 CALM      30.30S
HILLSVILLE*    PTCLDY    59  56  91 CALM      30.28R
RICHLANDS*     FAIR      65  24  20 S3        30.27R
WISE*          PTCLDY    66  54  63 S7        30.28R
ABINGDON*      CLEAR     61  58  90 CALM      30.26R
$$

MDZ021>025-VAZ099-100-291200-
SOUTHERN MARYLAND AND THE DELMARVA PENINSULA

CITY           SKY/WX    TMP DP  RH WIND       PRES   REMARKS
PATUXENT RIVER MOCLDY    64  61  90 SW3       30.21R
BAY BRIDGE APT   N/A     70  61  73 CALM      30.20R
LEONARDTOWN    PTCLDY    63  59  88 CALM      30.22S
DOVER          CLEAR     64  60  86 S2        30.20R
GEORGETOWN     CLEAR     57  55  93 CALM      30.22R
EASTON         PTCLDY    64  64 100 CALM      30.24R
CAMBRIDGE      MOCLDY    61  57  88 CALM      30.21R
SALISBURY      CLEAR     56  54  93 E3        30.21R
OCEAN CITY     CLEAR     57  54  89 CALM      30.21R
WALLOPS ISLAND CLEAR     61  58  90 CALM      30.22R
ACCOMACK*      CLEAR     55  55 100 CALM      30.21R
$$

NCZ012>017-030>032-291200-
NORTH CENTRAL AND EASTERN NORTH CAROLINA

CITY           SKY/WX    TMP DP  RH WIND       PRES   REMARKS
ROANOKE RAPIDS FAIR      54  54 100 CALM      30.21R FOG
RALEIGH        PTCLDY    60  59  96 CALM      30.23R
ELIZABETH CITY CLEAR     70  65  84 N7        30.19R
AHOSKIE*       CLEAR     56  55  94 CALM      30.21R
EDENTON*       PTCLDY    62  60  94 CALM      30.20R
CURRITUCK*     CLEAR     62  60  91 CALM      30.20R
KILL DEVIL HLS CLEAR     74  64  69 NE7       30.17R
MANTEO         CLEAR     74  65  74 NE10      30.18R
CAPE HATTERAS  CLOUDY    74  72  93 E10       30.15R
TARBORO*       FAIR      55  54  97 CALM      30.22R FOG
GOLDSBORO      CLEAR     62  61  96 N3        30.18R
WASHINGTON     CLEAR     62  61  96 N3        30.19R
GREENVILLE       N/A     59  59 100 CALM      30.21R FOG
NEW BERN       CLEAR     68  65  90 NE7       30.18R
WILMINGTON     CLEAR     66  64  93 N5        30.16R
$$

VAZ048-291200-
ELSEWHERE

CITY           SKY/WX    TMP DP  RH WIND       PRES   REMARKS
HARRISBURG PA  PTCLDY    60  56  86 CALM      30.20R
BALTIMORE      PTCLDY    61  59  93 CALM      30.20R
ANNAPOLIS      CLEAR     68  60  75 CALM      30.20R
ANDREWS AFB    CLEAR     62  59  91 S5        30.20R
PHILADELPHIA   PTCLDY    66  57  72 N3        30.21R
HENDERSON NC   MOCLDY    60  58  92 CALM      30.22S FOG
GREENSBORO     MOCLDY    63  59  87 CALM      30.23R
ROCKY MOUNT    CLEAR     58  57  97 CALM      30.21R
$$

VAZ100-291200-
MARINE

STATION/POSITION TIME  TEMP    WIND        PRES    WAVE   SWELL
                       AIR SEA DIR/SP/G            HT/PER HT/PER
                 (UTC) (F)     (DEG/KT/KT) (MB)    (FT/S) (FT/S)
15NM E FENWICK I 1050   74 77  280/  2/  4 1023.2R   3/11   3/11
CHESAPEAKE LGHT  1000   75      50/ 12/ 13 1022.7R
CAPE HENRY BUOY  1028      78                N/A     3/11   2/11
CAPE CHARLES BUO 1026      78                N/A     3/11   3/11
OFFSHORE WE BUOY 1011      78                N/A     3/12   3/12
64NM E OF VA BCH 1050   76 78   50/ 10/ 14 1021.6R   4/10   3/10
44100 DUCK FRF   1024      77                N/A     4/10   2/11
44056 DUCK FRF   1011      78                N/A     3/10   2/12
DIAMOND SHLS NC  1050   77 82   30/ 19/ 21 1019.7R   5/11   3/11
CAPE LOOKOUT NC  1100   78      40/ 20/ 22 1020.2R
$$


USA.gov is the U.S. government's official web portal to all federal, state and local government web resources and services.